User: anonymous   Login
Location: El Corozo
(10.5833°N, 66.9667°W)
Time: 22:52:42
(UTC+00:00)
Language:

ARIANE 5 R/B - Orbit

View from above orbital plane
View from above orbital plane
View from above satellite
View from above satellite

Ground track
Ground track

The orbit data is extracted from the following two-line orbital elements,

1 32769U 08018C   24193.53383082  .00001086  00000-0  54675-3 0  9990
2 32769   1.3652 143.3760 6949069 246.9914  28.4237  2.68945639147312
Epoch (UTC): 11 July 2024 12:48:42
Eccentricity: 0.6949069
inclination: 1.3652°
perigee height: 286 km
apogee height: 30642 km
right ascension of ascending node: 143.3760°
argument of perigee: 246.9914°
revolutions per day: 2.68945639
mean anomaly at epoch: 28.4237°
orbit number at epoch: 14731

The dashed part of the orbit path shows where the satellite is in the earth's shadow,  

DLR